Location: Waco, TX
(31.5480°N, 97.1670°W)
Time: 15:38:10
(UTC-06:00)

ISS - Pass Details

Date: 26 January 2021
Orbit: 417 x 422 km, 51.6° (Epoch: 07 March)

Event Time Altitude Azimuth Distance (km) Brightness Sun altitude
Rises 22:48:26 0° 323° (NW) 2,373 - -61.3°
Reaches altitude 10° 22:50:39 10° 332° (NNW) 1,506 - -61.8°
Maximum altitude 22:53:48 36° 41° (NE) 681 - -62.4°
Drops below altitude 10° 22:56:57 10° 110° (ESE) 1,498 - -63.0°
Sets 22:59:08 0° 119° (ESE) 2,358 - -63.5°
